User: anonymous   Login
Location: Hamilton
(37.7830°S, 175.2830°E)
Time: 01:55:34
(UTC+13:00)
Language:

Cosmos 1386 Rocket - Orbit

View from above orbital plane
View from above orbital plane
View from above satellite
View from above satellite

Ground track
Ground track

The orbit data is extracted from the following two-line orbital elements,

1 13354U 82069B   19288.87437140 -.00000031 +00000-0 -44706-4 0  9994
2 13354 082.9587 068.3702 0050691 261.4859 098.0552 13.78886615874763
Epoch (UTC): 15 October 2019 20:59:05
Eccentricity: 0.0050691
inclination: 82.9587°
perigee height: 930 km
apogee height: 1005 km
right ascension of ascending node: 68.3702°
argument of perigee: 261.4859°
revolutions per day: 13.78886615
mean anomaly at epoch: 98.0552°
orbit number at epoch: 87476

The dashed part of the orbit path shows where the satellite is in the earth's shadow,  

DLR